Winnipeg, Manitoba

10:14 PM CST on February 22, 2017 (GMT -0600)
Winnipeg International Airport

Weather History for CYWG - May, 2013

Change the Weather History Date:

Tuesday, May 28, 2013

  Actual Average Record
Temperature  
Mean Temperature 62 °F -  
Max Temperature 66 °F 73 °F 86 °F (1999)
Min Temperature 57 °F 50 °F 37 °F (2004)
Degree Days  
Heating Degree Days 4    
Growing Degree Days 12 (Base 50)    
Moisture  
Dew Point 55 °F    
Average Humidity 79    
Maximum Humidity 94    
Minimum Humidity 65    
Precipitation  
Precipitation 0.04 in 0.11 in - ()
Sea Level Pressure  
Sea Level Pressure 29.66 in    
Wind  
Wind Speed 12 mph ()    
Max Wind Speed 22 mph    
Max Gust Speed 29 mph    
Visibility 11.6 miles    
Events Rain    
Averages and records for this station are not official NWS values.
T = Trace of Precipitation, MM = Missing Value Source: Averaged Metar Reports

Daily Weather History Graph

Daily Weather History Graph

Search for Another Location

Airport or City:

Trip Planner

Search our weather history database for the weather conditions in past years. The results will help you decide how hot, cold, wet, or windy it might be!

Date:

Astronomy

May. 28, 2013 Rise Set
Actual Time 5:28 AM CDT 9:24 PM CDT
Civil Twilight 4:46 AM CDT 10:07 PM CDT
Nautical Twilight 3:47 AM CDT 11:05 PM CDT
Astronomical Twilight 2:08 AM CDT 12:49 AM CDT
Moon No Moon Rise 9:27 AM CDT (5/28)
Length of Visible Light 17h 20m
Length of Day
15h 56m
Waning Gibbous, 82% of the Moon is Illuminated
May 28
Waning Gibbous
May 31
Last Quarter
Jun 8
New
Jun 16
First Quarter
Jun 23
Full

Hourly Weather History & Observations

Time (CDT) Temp. Dew Point Humidity Pressure Visibility Wind Dir Wind Speed Gust Speed Precip Events Conditions
12:00 AM 64.4 °F 53.6 °F 68% 29.78 in 15.0 mi South 8.1 mph - N/A   Overcast
1:00 AM 63 °F 54 °F 65% 29.75 in 9 mi Calm Calm - -   Overcast
1:00 AM 62.6 °F 53.6 °F 72% 29.76 in 15.0 mi South 6.9 mph - N/A   Overcast
2:00 AM 62.6 °F 53.6 °F 72% 29.75 in 15.0 mi South 10.4 mph - N/A   Overcast
3:00 AM 62.6 °F 51.8 °F 68% 29.73 in 15.0 mi South 13.8 mph - N/A   Overcast
4:00 AM 60.8 °F 51.8 °F 72% 29.72 in 15.0 mi South 13.8 mph - N/A   Overcast
5:00 AM 60.8 °F 51.8 °F 72% 29.71 in 15.0 mi South 11.5 mph 18.4 mph N/A   Overcast
6:00 AM 59.0 °F 51.8 °F 77% 29.70 in 15.0 mi SSE 11.5 mph - N/A   Overcast
7:00 AM 60 °F 53 °F 72% 29.70 in 9 mi Calm Calm - -  
7:00 AM 59.0 °F 51.8 °F 77% 29.70 in 15.0 mi SSE 15.0 mph 20.7 mph N/A   Overcast
7:44 AM 59.0 °F 53.6 °F 82% 29.70 in 10.0 mi SSE 17.3 mph - N/A Rain Light Rain
8:00 AM 59.0 °F 53.6 °F 82% 29.70 in 10.0 mi South 16.1 mph - N/A Rain Light Rain
8:09 AM 59.0 °F 53.6 °F 82% 29.69 in 12.0 mi South 15.0 mph 20.7 mph N/A   Overcast
9:00 AM 59.0 °F 53.6 °F 82% 29.68 in 12.0 mi South 15.0 mph 23.0 mph N/A   Overcast
9:45 AM 59.0 °F 53.6 °F 82% 29.67 in 10.0 mi South 16.1 mph 24.2 mph N/A Rain Light Rain
10:00 AM 59.0 °F 53.6 °F 82% 29.67 in 10.0 mi South 16.1 mph - N/A   Overcast
10:39 AM 59.0 °F 53.6 °F 82% 29.66 in 10.0 mi SSE 18.4 mph 26.5 mph N/A Rain Light Rain Showers
11:00 AM 59.0 °F 55.4 °F 88% 29.66 in 3.0 mi SSE 17.3 mph - N/A Rain Light Rain Showers
11:43 AM 59.0 °F 55.4 °F 88% 29.66 in 3.0 mi SSE 13.8 mph 19.6 mph N/A Rain Light Rain Showers
12:00 PM 57.2 °F 55.4 °F 94% 29.68 in 3.0 mi South 21.9 mph 28.8 mph N/A Rain Light Rain Showers
1:00 PM 60 °F 58 °F 90% 29.63 in 7 mi Calm Calm - -   Unknown Precipitation
1:00 PM 59.0 °F 57.2 °F 94% 29.64 in 8.0 mi SSE 17.3 mph 26.5 mph N/A Rain Light Rain Showers
2:00 PM 60.8 °F 57.2 °F 88% 29.65 in 15.0 mi South 17.3 mph 26.5 mph N/A   Overcast
3:00 PM 60.8 °F 55.4 °F 82% 29.65 in 10.0 mi South 20.7 mph - N/A   Overcast
4:00 PM 62.6 °F 57.2 °F 82% 29.62 in 8.0 mi SSE 19.6 mph - N/A   Overcast
5:00 PM 62.6 °F 57.2 °F 82% 29.62 in 10.0 mi South 17.3 mph 24.2 mph N/A   Overcast
5:45 PM 66.2 °F 59.0 °F 78% 29.60 in 15.0 mi SSE 15.0 mph - N/A   Scattered Clouds
6:00 PM 64.4 °F 57.2 °F 77% 29.60 in 15.0 mi SSE 17.3 mph - N/A   Mostly Cloudy
7:00 PM 66 °F 59 °F 72% 29.58 in 9 mi Calm Calm - -  
7:00 PM 66.2 °F 59.0 °F 78% 29.59 in 15.0 mi SE 12.7 mph - N/A   Mostly Cloudy
8:00 PM 66.2 °F 57.2 °F 73% 29.57 in 15.0 mi SSE 15.0 mph - N/A   Scattered Clouds
9:00 PM 64.4 °F 57.2 °F 77% 29.56 in 15.0 mi SSE 12.7 mph - N/A   Mostly Cloudy
10:00 PM 64.4 °F 57.2 °F 77% 29.56 in 15.0 mi SSE 12.7 mph - N/A   Mostly Cloudy
11:00 PM 62.6 °F 57.2 °F 82% 29.57 in 15.0 mi SW 6.9 mph - N/A   Mostly Cloudy